User: anonymous   Login
Location: Maiden
(35.5760°N, 81.2120°W)
Time: 02:34:10
(UTC-04:00)
Language:

A-11 Canister half - Orbit

View from above orbital plane
View from above orbital plane
View from above satellite
View from above satellite

Ground track
Ground track

The orbit data is extracted from the following two-line orbital elements,

1    53U 60009E   21134.85053531 -.00000152  00000-0 -65971-3 0  9995
2    53  47.2772 317.0090 0097831 341.2069  18.5121 12.17254443708930
Epoch (UTC): 14 May 2021 20:24:46
Eccentricity: 0.0097831
inclination: 47.2772°
perigee height: 1526 km
apogee height: 1682 km
right ascension of ascending node: 317.0090°
argument of perigee: 341.2069°
revolutions per day: 12.17254443
mean anomaly at epoch: 18.5121°
orbit number at epoch: 70893

The dashed part of the orbit path shows where the satellite is in the earth's shadow,  

DLR